Stündliche Wetter Otradnoe

Heute, 14 April, Mittwoch

Zeit Temperatur Niederschläge Wind Luftdruck Luftfeuchtigkeit
00:00 +10°C° 0 mm 2 m/S 761 mmHg 82%
01:00 +10°C° 0.1 mm 2 m/S 761 mmHg 82%
02:00 +10°C° 0.1 mm 2 m/S 761 mmHg 83%
03:00 +10°C° 0 mm 2 m/S 760 mmHg 85%
04:00 +10°C° 0.6 mm 2 m/S 760 mmHg 87%
05:00 +10°C° 0.6 mm 2 m/S 760 mmHg 90%
06:00 +9°C° 0.6 mm 3 m/S 759 mmHg 93%
07:00 +10°C° 0.1 mm 3 m/S 759 mmHg 89%
08:00 +11°C° 0.1 mm 3 m/S 759 mmHg 85%
09:00 +12°C° 0.1 mm 3 m/S 759 mmHg 81%
10:00 +13°C° 0 mm 3 m/S 759 mmHg 75%
11:00 +14°C° 0 mm 3 m/S 758 mmHg 69%
12:00 +16°C° 0 mm 3 m/S 758 mmHg 63%
13:00 +15°C° 0.1 mm 4 m/S 758 mmHg 63%
14:00 +15°C° 0.1 mm 4 m/S 758 mmHg 63%
15:00 +15°C° 0.1 mm 5 m/S 758 mmHg 63%
16:00 +14°C° 0 mm 5 m/S 758 mmHg 65%
17:00 +14°C° 0 mm 5 m/S 758 mmHg 68%
18:00 +13°C° 0 mm 4 m/S 758 mmHg 70%
19:00 +12°C° 0 mm 4 m/S 758 mmHg 73%
20:00 +11°C° 0 mm 4 m/S 758 mmHg 77%
21:00 +8°C° 0 mm 4 m/S 759 mmHg 80%
22:00 +9°C° 0 mm 3 m/S 758 mmHg 82%
23:00 +9°C° 0 mm 3 m/S 758 mmHg 83%

Morgen, 15 April, Donnerstag

Zeit Temperatur Niederschläge Wind Luftdruck Luftfeuchtigkeit
00:00 +8°C° 0 mm 2 m/S 758 mmHg 85%
01:00 +8°C° 0 mm 2 m/S 758 mmHg 85%
02:00 +8°C° 0 mm 2 m/S 758 mmHg 86%
03:00 +8°C° 0 mm 1 m/S 758 mmHg 87%
04:00 +8°C° 0 mm 1 m/S 758 mmHg 87%
05:00 +8°C° 0 mm 1 m/S 758 mmHg 87%
06:00 +8°C° 0 mm 1 m/S 758 mmHg 87%
07:00 +9°C° 0 mm 2 m/S 758 mmHg 82%
08:00 +10°C° 0 mm 2 m/S 758 mmHg 77%
09:00 +11°C° 0 mm 3 m/S 759 mmHg 72%
10:00 +12°C° 0 mm 3 m/S 758 mmHg 68%
11:00 +13°C° 0 mm 3 m/S 758 mmHg 64%
12:00 +16°C° 0 mm 3 m/S 758 mmHg 60%
13:00 +14°C° 0 mm 3 m/S 758 mmHg 60%
14:00 +14°C° 0 mm 3 m/S 758 mmHg 60%
15:00 +14°C° 0 mm 3 m/S 758 mmHg 59%
16:00 +14°C° 0 mm 3 m/S 758 mmHg 63%
17:00 +13°C° 0 mm 3 m/S 758 mmHg 66%
18:00 +13°C° 0 mm 3 m/S 758 mmHg 70%
19:00 +12°C° 0 mm 3 m/S 758 mmHg 76%
20:00 +11°C° 0 mm 3 m/S 758 mmHg 83%
21:00 +10°C° 0 mm 2 m/S 758 mmHg 90%
22:00 +10°C° 0 mm 2 m/S 758 mmHg 90%
23:00 +9°C° 0 mm 2 m/S 758 mmHg 91%

übermorgen, 16 April, Freitag

Zeit Temperatur Niederschläge Wind Luftdruck Luftfeuchtigkeit
00:00 +9°C° 0 mm 2 m/S 758 mmHg 92%
01:00 +8°C° 0 mm 2 m/S 758 mmHg 92%
02:00 +8°C° 0 mm 2 m/S 758 mmHg 91%
03:00 +8°C° 0 mm 2 m/S 758 mmHg 91%
04:00 +7°C° 0 mm 2 m/S 758 mmHg 92%
05:00 +7°C° 0 mm 2 m/S 758 mmHg 92%
06:00 +7°C° 0 mm 2 m/S 758 mmHg 93%
07:00 +8°C° 0 mm 2 m/S 759 mmHg 85%
08:00 +9°C° 0 mm 2 m/S 759 mmHg 77%
09:00 +12°C° 0 mm 2 m/S 759 mmHg 69%
10:00 +12°C° 0 mm 3 m/S 759 mmHg 64%
11:00 +12°C° 0 mm 3 m/S 760 mmHg 60%
12:00 +13°C° 0 mm 4 m/S 760 mmHg 55%
13:00 +13°C° 0 mm 4 m/S 760 mmHg 54%
14:00 +14°C° 0 mm 4 m/S 760 mmHg 53%
15:00 +14°C° 0 mm 4 m/S 760 mmHg 52%
16:00 +13°C° 0.1 mm 4 m/S 760 mmHg 56%
17:00 +12°C° 0.1 mm 4 m/S 760 mmHg 60%
18:00 +11°C° 0.1 mm 3 m/S 760 mmHg 65%
19:00 +10°C° 0 mm 3 m/S 760 mmHg 68%
20:00 +10°C° 0 mm 3 m/S 760 mmHg 72%
21:00 +9°C° 0 mm 2 m/S 761 mmHg 75%
22:00 +9°C° 0 mm 2 m/S 761 mmHg 76%
23:00 +9°C° 0 mm 2 m/S 761 mmHg 78%

17 April, Samstag

Zeit Temperatur Niederschläge Wind Luftdruck Luftfeuchtigkeit
00:00 +8°C° 0 mm 2 m/S 761 mmHg 79%
01:00 +8°C° 0 mm 2 m/S 761 mmHg 82%
02:00 +7°C° 0 mm 2 m/S 761 mmHg 84%
03:00 +7°C° 0 mm 2 m/S 761 mmHg 86%
04:00 +7°C° 0 mm 2 m/S 761 mmHg 86%
05:00 +8°C° 0 mm 1 m/S 761 mmHg 86%
06:00 +7°C° 0 mm 1 m/S 761 mmHg 85%
07:00 +9°C° 0 mm 1 m/S 761 mmHg 79%
08:00 +9°C° 0 mm 2 m/S 761 mmHg 73%
09:00 +10°C° 0 mm 2 m/S 762 mmHg 67%
10:00 +11°C° 0 mm 3 m/S 762 mmHg 62%
11:00 +12°C° 0 mm 4 m/S 762 mmHg 57%
12:00 +12°C° 0 mm 5 m/S 762 mmHg 53%
13:00 +12°C° 0 mm 5 m/S 762 mmHg 53%
14:00 +12°C° 0 mm 5 m/S 762 mmHg 54%
15:00 +12°C° 0 mm 5 m/S 762 mmHg 55%
16:00 +12°C° 0 mm 5 m/S 762 mmHg 58%
17:00 +11°C° 0 mm 4 m/S 762 mmHg 62%
18:00 +11°C° 0 mm 4 m/S 762 mmHg 65%
19:00 +10°C° 0 mm 3 m/S 762 mmHg 70%
20:00 +9°C° 0 mm 3 m/S 762 mmHg 76%
21:00 +8°C° 0 mm 2 m/S 762 mmHg 81%
22:00 +8°C° 0 mm 2 m/S 762 mmHg 83%
23:00 +7°C° 0 mm 2 m/S 762 mmHg 85%

18 April, Sonntag

Zeit Temperatur Niederschläge Wind Luftdruck Luftfeuchtigkeit
00:00 +8°C° 0 mm 1 m/S 762 mmHg 87%
01:00 +8°C° 0 mm 1 m/S 762 mmHg 88%
02:00 +8°C° 0 mm 1 m/S 762 mmHg 88%
03:00 +7°C° 0 mm 1 m/S 762 mmHg 88%
04:00 +7°C° 0 mm 1 m/S 762 mmHg 89%
05:00 +7°C° 0 mm 1 m/S 762 mmHg 89%
06:00 +7°C° 0 mm 1 m/S 761 mmHg 89%
07:00 +8°C° 0 mm 1 m/S 761 mmHg 82%
08:00 +10°C° 0 mm 1 m/S 761 mmHg 75%
09:00 +10°C° 0 mm 2 m/S 761 mmHg 68%
10:00 +13°C° 0 mm 1 m/S 761 mmHg 63%
11:00 +14°C° 0 mm 1 m/S 761 mmHg 57%
12:00 +15°C° 0 mm 1 m/S 761 mmHg 52%
13:00 +15°C° 0 mm 1 m/S 761 mmHg 51%
14:00 +15°C° 0 mm 2 m/S 761 mmHg 50%
15:00 +15°C° 0 mm 2 m/S 761 mmHg 49%
16:00 +15°C° 0 mm 2 m/S 761 mmHg 52%
17:00 +15°C° 0 mm 2 m/S 761 mmHg 54%
18:00 +15°C° 0 mm 2 m/S 761 mmHg 56%
19:00 +14°C° 0 mm 2 m/S 761 mmHg 59%
20:00 +13°C° 0 mm 2 m/S 761 mmHg 63%
21:00 +12°C° 0 mm 2 m/S 761 mmHg 66%
22:00 +12°C° 0 mm 2 m/S 761 mmHg 67%
23:00 +12°C° 0 mm 2 m/S 761 mmHg 68%

19 April, Montag

Zeit Temperatur Niederschläge Wind Luftdruck Luftfeuchtigkeit
00:00 +10°C° 0 mm 2 m/S 761 mmHg 69%
01:00 +10°C° 0 mm 2 m/S 761 mmHg 71%
02:00 +10°C° 0 mm 2 m/S 761 mmHg 73%
03:00 +10°C° 0 mm 2 m/S 761 mmHg 74%
04:00 +9°C° 0 mm 2 m/S 761 mmHg 78%
05:00 +9°C° 0 mm 2 m/S 762 mmHg 82%
06:00 +8°C° 0 mm 3 m/S 762 mmHg 86%
07:00 +10°C° 0 mm 3 m/S 762 mmHg 81%
08:00 +11°C° 0 mm 3 m/S 762 mmHg 76%
09:00 +13°C° 0 mm 3 m/S 763 mmHg 71%
10:00 +14°C° 0 mm 4 m/S 763 mmHg 64%
11:00 +15°C° 0 mm 4 m/S 763 mmHg 58%
12:00 +16°C° 0 mm 5 m/S 763 mmHg 51%
13:00 +16°C° 0 mm 5 m/S 763 mmHg 52%
14:00 +16°C° 0 mm 6 m/S 763 mmHg 52%
15:00 +16°C° 0 mm 6 m/S 763 mmHg 52%
16:00 +15°C° 0 mm 6 m/S 763 mmHg 56%
17:00 +14°C° 0 mm 7 m/S 763 mmHg 60%
18:00 +12°C° 0 mm 7 m/S 763 mmHg 63%
19:00 +11°C° 0 mm 7 m/S 763 mmHg 68%
20:00 +10°C° 0 mm 7 m/S 763 mmHg 73%
21:00 +9°C° 0 mm 7 m/S 763 mmHg 78%
22:00 +9°C° 0 mm 7 m/S 763 mmHg 78%
23:00 +9°C° 0 mm 8 m/S 763 mmHg 79%
Mehr zeigen

Wir brauchen deine Erlaubnis

Meteoprog und unser Service Anbieter werden persönliche Daten aufbewahren, so wie Cookies, Geräte Bezeichnung oder ähnliche Technologien von deinem Gerät und Prozess, so wie Persönliche Daten Inhalte und Werbungen, genauso wie social Media und den Verkehr zu analysieren.

  • Aufbewahrung und/oder Zugang zu deiner Geräte Informationen.

    Cookies, Geräte Bezeichnung oder andere Informationen, können aufbewahrt oder Zugang zu deinem Gerät erhalten, für den Grund, der oben angegeben wird.

  • Personalisierte Werbung und Inhalte, Messungen, Einblick in das Publikum und Produkt Entwicklung.

    Werbungen und Inhalte können personalisiert werden, basierend auf ein Profil. Mehr Daten können besser personalisierte Werbungen und Inhalte hinzufügen. Werbung und Inhalte können gezeigt und gemessen werden. Einblicke über das Publikum, welche die Werbung gesehen haben und den Inhalt, können abgeleitet werden. So wie Daten können genutzt werden, um es zu verbessern oder die Benutzer Erfahrung zu verbessern das System und die Software.

Wenn du “Ich stimme zu” klickst, erlaubst du uns, die Cookies zu benutzen die Geräte Bezeichnung, den Web oder ähnliche Technologien zu benutzen. Deine Settings, können in deinem Gerät bei deinem Browser geändert werden.

Für den bestimmten Zweck, berechtigten Interessen beruhen darauf, mehr als auf den Inhalt. Du kannst mehr darüber in unseren Privaten und Cookie Politik lesen.